CZ-4B R/B (29507 NORAD) Tracking and Keplerian Element Data
This shows tracking and keplerian element data for the satellite.
Feedback or suggestion? Click here.
Element | Value |
Catalog | 29507 |
Name | CZ-4B R/B |
Epoch Orbit | 78331 |
Epoch Day | 56.47932976 |
Epoch Year | 2021 |
RAAN | 83.0119 |
Inclination | 97.7194 |
Eccentricity | 0.0049302 |
Argument of Perigee | 33.2371 |
Mean Anonmoly | 327.1932 |
Mean Motion | 15.00666496 |
Decay Rate | 8.87E-06 |
L1 | 1 29507U 06046C 21056.47932976 .00000887 00000-0 73214-4 0 9994 |
L2 | 2 29507 97.7194 83.0119 0049302 33.2371 327.1932 15.00666496783313 |
Live tracking and technical data element details for CZ-4B R/B (NORAD 29507). CZ-4B R/B can be tracked NOW for your location showing map with azimuth and elevation plus other details from your city location.
Track the satellite on the map from your city or location and see movement details for azimuth, elevation, latitude, longitude, range, height, and movement on the map or in text.
IsCatalogInMostPopularTable: catalog: 29507, numindb: 726
Update: records affected: 1
GetName: 29507 CZ-4B R/B
Hit Count: updated at: Sat, 27 Feb 2021 12:25:44 GMT